Location: Dealu Mare
(46.0500°N, 22.8167°E)
Time: 21:49:30
(UTC+00:00)

SeaSat 1 - Pass Details

Date: 15 January 2026
Orbit: 737 x 739 km, 108.0° (Epoch: 10 February)

Event Time Altitude Azimuth Distance (km) Brightness Sun altitude
Rises 04:25:10 0° 32° (NNE) 3,183 6.0 -17.2°
Reaches altitude 10° 04:27:30 10° 37° (NE) 2,256 5.2 -16.8°
Maximum altitude 04:32:17 51° 114° (ESE) 925 3.3 -16.0°
Drops below altitude 10° 04:37:01 10° 190° (S) 2,241 5.0 -15.2°
Sets 04:39:20 0° 195° (SSW) 3,160 5.7 -14.8°
